[[{"header":{"parameterUnit":"m.s-1","parameterCategory":1,"la1":30.2991,"la2":30.254,"lo1":-89.0895,"lo2":-89.0444,"dy":0.0017,"dx":0.0017,"nx":28,"ny":28,"refTime":"2025-06-20T21:00:00:Z","depth":0,"parameterNumber":2,"parameterNumberName":"U-component_of_WINDS"},"data":[0,0,0,0,0,0,0,0,0,0,0,0,0,0,0,0,0,0,0,0,0,0,0,0,0,0,0,0,0,0,0,0,0,0,0,0,0,0,0,0,0,0,0,0,0,0,0,0,0,0,0,0,0,0,0,0,0,0,0.2351,0.2351,0,0.2397,0.2398,0.2398,0.2399,0.2398,0.2397,0.2397,0.2448,0.245,0.2452,0,0,0,0,0,0,0,0,0,0,0,0,0,0.2263,0.2265,0.2351,0.2351,0.2352,0.2397,0.2398,0.2399,0.2399,0.2398,0.2397,0.2397,0.2447,0.2449,0.2452,0,0,0,0,0,0,0,0,0,0,0,0,0,0.2305,0.2265,0.2351,0.2357,0.2358,0.2397,0.2398,0.2399,0.2399,0.2398,0.2397,0.2396,0.2446,0.2449,0.2452,0.2488,0,0,0.2461,0.2462,0,0,0,0,0,0,0,0,0.2302,0.2308,0.2356,0.2357,0.2358,0.2391,0.2386,0.2429,0.2399,0.2384,0.2397,0.2396,0.243,0.2434,0.2445,0.2491,0.2493,0.2461,0.2463,0.2464,0.2465,0,0,0,0,0,0,0,0.23,0.2306,0.2369,0.2356,0.2358,0.2359,0.2363,0.2394,0.2411,0.2385,0.2385,0.239,0.243,0.2442,0.2446,0.2494,0.2461,0.2464,0.2465,0.2467,0.2569,0.257,0,0,0,0,0,0,0.2295,0.2304,0.2368,0.2371,0.2327,0.2361,0.2366,0.2382,0.2411,0.2415,0.2391,0.239,0.2438,0.2443,0.2448,0.2491,0.2464,0.2467,0.2469,0.2568,0.257,0.2571,0,0,0,0,0,0,0.2293,0.2301,0.2366,0.2337,0.2345,0.2363,0.238,0.2383,0.2395,0.2416,0.2419,0.24,0.2437,0.2444,0.2478,0.2493,0.2468,0.2471,0.2567,0.2569,0.257,0.2577,0,0,0,0,0,0,0.2291,0.23,0.2314,0.2337,0.2347,0.2394,0.2381,0.2385,0.2399,0.2398,0.2425,0.2428,0.2437,0.2473,0.248,0.2496,0.2473,0.2566,0.2568,0.257,0.2576,0.2579,0.2582,0,0,0,0,0,0.2288,0.2315,0.2314,0.2322,0.2364,0.2395,0.2401,0.2409,0.24,0.2414,0.2428,0.2427,0.249,0.2477,0.2485,0.2502,0.2565,0.2567,0.257,0.2575,0.2578,0.2582,0,0,0,0,0,0,0.2294,0.2318,0.2318,0.2354,0.2372,0.2395,0.2413,0.2413,0.2435,0.2434,0.2445,0.245,0.2484,0.2496,0.2481,0.2537,0.2526,0.253,0.2528,0.2531,0.2534,0.253,0.2475,0,0,0,0,0,0.2299,0.2321,0.2342,0.2371,0.2381,0.2395,0.2409,0.2414,0.2434,0.2442,0.2458,0.2478,0.2502,0.2517,0.2541,0.2578,0.2583,0.2593,0.2596,0.2598,0.2602,0.2621,0.2625,0.2578,0.2578,0.2578,0,0,0.2311,0.2327,0.2341,0.2373,0.2388,0.2411,0.2402,0.2427,0.2444,0.2446,0.2478,0.249,0.2513,0.2548,0.2565,0.256,0.2616,0.2601,0.2603,0.2605,0.2623,0.2628,0.2632,0.258,0.2579,0.2579,0,0,0.2343,0.2358,0.2384,0.2398,0.242,0.2429,0.2435,0.2458,0.2466,0.2498,0.2499,0.252,0.2562,0.2577,0.2591,0.2628,0.2628,0.2636,0.265,0.2669,0.2672,0.2676,0.2688,0.2692,0.2639,0.2639,0.2639,0,0.2355,0.2389,0.2397,0.2421,0.2435,0.2437,0.2462,0.2477,0.2506,0.2515,0.2509,0.256,0.2576,0.2614,0.2622,0.2634,0.2641,0.2632,0.2671,0.2674,0.2678,0.2689,0.2694,0.2639,0.2639,0.2639,0.2639,0,0.2402,0.2426,0.2444,0.247,0.2486,0.2511,0.2522,0.2538,0.2541,0.2551,0.2583,0.2602,0.2628,0.2638,0.2642,0.2676,0.2672,0.2669,0.2658,0.2682,0.2693,0.2698,0.264,0.264,0.264,0.264,0,0,0.244,0.2469,0.2475,0.2486,0.251,0.2529,0.2554,0.2578,0.2591,0.2611,0.2632,0.2666,0.2662,0.2677,0.2683,0.27,0.2726,0.2694,0.2695,0.2698,0.2763,0.2765,0.277,0.2726,0.2727,0.2728,0.276,0,0.2474,0.2517,0.2524,0.2562,0.2583,0.2585,0.2606,0.2623,0.2633,0.2653,0.2664,0.2687,0.2681,0.269,0.2706,0.2719,0.2739,0.2717,0.2746,0.2746,0.2739,0.2776,0.2778,0.2808,0.2765,0.2766,0.2766,0,0.2519,0.2539,0.2578,0.2598,0.2607,0.2626,0.2648,0.2667,0.2687,0.2693,0.2709,0.2712,0.2738,0.2727,0.2762,0.2747,0.2759,0.2767,0.2768,0.2771,0.2757,0.2778,0.2818,0.2822,0.2773,0.2773,0.2772,0,0.2541,0.2577,0.2605,0.2615,0.2639,0.2652,0.2663,0.2681,0.2695,0.2715,0.2724,0.2747,0.2759,0.2777,0.2787,0.2778,0.2821,0.2811,0.2826,0.2826,0.2835,0.2834,0.2876,0.2845,0.2845,0.2844,0.2844,0,0.2578,0.2602,0.2615,0.2632,0.2659,0.2667,0.2693,0.2704,0.272,0.2739,0.2742,0.276,0.2772,0.2792,0.28,0.2828,0.2834,0.2839,0.2841,0.2838,0.2837,0.2846,0.2844,0.2846,0.2845,0.2845,0.2845,0,0.2606,0.2616,0.2647,0.2666,0.2672,0.269,0.2707,0.2724,0.2733,0.2757,0.2764,0.2779,0.2802,0.2813,0.2843,0.2848,0.2879,0.288,0.2872,0.2872,0.2887,0.2885,0.2935,0.2942,0.2907,0.2907,0.2907,0,0.2628,0.2646,0.2668,0.268,0.2691,0.2711,0.2725,0.2733,0.2748,0.277,0.2784,0.2807,0.2826,0.2863,0.2877,0.29,0.29,0.2916,0.2904,0.29,0.2899,0.2898,0.2899,0.2918,0.2919,0.2919,0.2919,0,0.2666,0.267,0.2689,0.2709,0.2725,0.2742,0.2758,0.2769,0.278,0.2796,0.2819,0.2833,0.2863,0.2886,0.2909,0.292,0.2921,0.2923,0.2928,0.2925,0.2919,0.2921,0.2877,0.2922,0.2922,0.2921,0.2921,0.2921,0.2691,0.2707,0.2723,0.2744,0.2757,0.2772,0.2788,0.2799,0.2818,0.2842,0.2846,0.2871,0.2889,0.2919,0.2932,0.2951,0.2948,0.2955,0.2956,0.2958,0.2958,0.2916,0.2956,0.2955,0.2955,0.2955,0.2955,0,0.2727,0.2738,0.2757,0.2779,0.2796,0.2795,0.2813,0.2826,0.2848,0.2864,0.2882,0.2908,0.293,0.2945,0.2967,0.298,0.2981,0.2985,0.2984,0.2986,0.296,0.2953,0.2984,0.2984,0.2984,0.2984,0.2984,0.2984,0.2748,0.2774,0.278,0.2812,0.2823,0.2846,0.2856,0.287,0.2882,0.2911,0.2929,0.2938,0.2954,0.2977,0.2997,0.3001,0.3008,0.3012,0.3016,0.2991,0.2988,0.2985,0.2979,0.3014,0.3014,0.3041,0.3041,0.3041]},{"header":{"parameterUnit":"m.s-1","parameterCategory":1,"la1":30.2991,"la2":30.254,"lo1":-89.0895,"lo2":-89.0444,"dy":0.0017,"dx":0.0017,"nx":28,"ny":28,"refTime":"2025-06-20T21:00:00:Z","depth":0,"parameterNumber":3,"parameterNumberName":"V-component_of_WINDS"},"data":[0,0,0,0,0,0,0,0,0,0,0,0,0,0,0,0,0,0,0,0,0,0,0,0,0,0,0,0,0,0,0,0,0,0,0,0,0,0,0,0,0,0,0,0,0,0,0,0,0,0,0,0,0,0,0,0,0,0,3.3599,3.3598,0,3.351,3.3509,3.3508,3.3419,3.3418,3.3417,3.3416,3.3321,3.332,3.3318,0,0,0,0,0,0,0,0,0,0,0,0,0,3.369,3.3689,3.3599,3.3598,3.3597,3.351,3.3509,3.3507,3.342,3.3418,3.3417,3.3416,3.3322,3.332,3.3318,0,0,0,0,0,0,0,0,0,0,0,0,0,3.3631,3.3689,3.3599,3.3543,3.3537,3.351,3.3508,3.3507,3.342,3.3418,3.3416,3.3415,3.3322,3.332,3.3318,3.3339,0,0,3.3311,3.331,0,0,0,0,0,0,0,0,3.3634,3.3627,3.3552,3.3547,3.354,3.3474,3.3506,3.3451,3.342,3.3464,3.3416,3.3414,3.3373,3.3367,3.3354,3.3334,3.333,3.3311,3.331,3.3309,3.3308,0,0,0,0,0,0,0,3.3638,3.3631,3.3564,3.3551,3.3544,3.352,3.351,3.3495,3.3429,3.346,3.3454,3.3444,3.3369,3.3356,3.3351,3.3329,3.3311,3.3309,3.3308,3.3307,3.3319,3.3321,0,0,0,0,0,0,3.3652,3.3635,3.3566,3.3561,3.3584,3.352,3.3509,3.3497,3.3429,3.3417,3.3446,3.3441,3.3361,3.3353,3.3347,3.3365,3.3309,3.3307,3.3306,3.3318,3.332,3.3322,0,0,0,0,0,0,3.3654,3.3646,3.357,3.3596,3.3585,3.3521,3.3508,3.3496,3.3482,3.3419,3.3406,3.3444,3.3359,3.335,3.3341,3.336,3.3306,3.3304,3.3316,3.3318,3.3321,3.3402,0,0,0,0,0,0,3.3657,3.3648,3.3656,3.3597,3.3584,3.3567,3.3509,3.3495,3.3479,3.3471,3.3414,3.3403,3.3357,3.3345,3.3339,3.3356,3.3302,3.3314,3.3317,3.332,3.3397,3.3407,3.3415,0,0,0,0,0,3.3661,3.3682,3.3657,3.3649,3.3593,3.3568,3.3561,3.3509,3.3481,3.3488,3.3447,3.3404,3.336,3.3345,3.3337,3.3354,3.3312,3.3316,3.332,3.3393,3.3405,3.3415,0,0,0,0,0,0,3.3745,3.3674,3.3645,3.3648,3.3615,3.3554,3.3561,3.3523,3.3496,3.349,3.3425,3.3413,3.3411,3.3382,3.3366,3.337,3.333,3.3332,3.3389,3.3399,3.3408,3.3414,3.33,0,0,0,0,0,3.3764,3.3751,3.3689,3.3699,3.3684,3.3626,3.3613,3.3576,3.3538,3.3523,3.3482,3.3446,3.3423,3.341,3.3386,3.3393,3.3378,3.3401,3.341,3.3418,3.342,3.3419,3.3428,3.3334,3.3334,3.3334,0,0,3.3803,3.3762,3.3758,3.3714,3.3684,3.3671,3.3614,3.3603,3.3592,3.3521,3.351,3.3478,3.3434,3.3433,3.343,3.3408,3.3443,3.3423,3.3429,3.3427,3.3424,3.3433,3.3441,3.3336,3.3336,3.3335,0,0,3.3867,3.3836,3.3839,3.381,3.3766,3.3727,3.3728,3.3672,3.3648,3.3636,3.3582,3.3568,3.3531,3.3501,3.3481,3.3533,3.3492,3.3527,3.3573,3.3573,3.358,3.3587,3.3603,3.361,3.353,3.353,3.353,0,3.392,3.3899,3.3845,3.3837,3.3818,3.3755,3.3756,3.3731,3.3681,3.3668,3.3645,3.3597,3.3563,3.3552,3.3565,3.3552,3.3549,3.3532,3.3584,3.359,3.3595,3.3609,3.3616,3.3534,3.3534,3.3533,3.3533,0,3.3966,3.3953,3.396,3.3914,3.3896,3.3893,3.3837,3.3825,3.379,3.3753,3.374,3.3697,3.3662,3.3658,3.3623,3.3642,3.3629,3.3596,3.3555,3.3609,3.3621,3.3627,3.3541,3.3539,3.3538,3.3537,0,0,3.4079,3.4003,3.4006,3.3984,3.393,3.3917,3.3911,3.3878,3.3868,3.3836,3.3827,3.3797,3.3765,3.3743,3.3704,3.3704,3.3745,3.367,3.3668,3.3684,3.376,3.3784,3.3792,3.3718,3.3719,3.372,3.3763,0,3.4132,3.4117,3.4068,3.4067,3.4052,3.3992,3.3986,3.3951,3.3917,3.3898,3.3859,3.3838,3.3799,3.3785,3.3783,3.3741,3.3759,3.3737,3.3707,3.3707,3.3718,3.3799,3.3824,3.3867,3.3768,3.3769,3.377,0,3.4191,3.4163,3.4161,3.4106,3.4098,3.4094,3.4059,3.4043,3.4001,3.3976,3.3951,3.3907,3.3895,3.3858,3.3838,3.3824,3.3809,3.3787,3.3787,3.378,3.374,3.3792,3.388,3.3886,3.3777,3.3777,3.3776,0,3.4271,3.4232,3.4226,3.4209,3.4146,3.4143,3.4117,3.4074,3.4057,3.4026,3.4013,3.3982,3.3963,3.3939,3.3887,3.3865,3.3872,3.3832,3.3849,3.385,3.3851,3.3852,3.3936,3.3846,3.3846,3.3845,3.3845,0,3.4333,3.4334,3.426,3.4256,3.4255,3.4198,3.4197,3.4164,3.4127,3.4114,3.406,3.4048,3.3982,3.3962,3.3922,3.3911,3.3903,3.3881,3.3869,3.3884,3.3887,3.3872,3.3867,3.3847,3.3847,3.3846,3.3846,0,3.4421,3.4372,3.4361,3.4302,3.4287,3.4289,3.4237,3.423,3.4192,3.4176,3.4169,3.411,3.4083,3.403,3.3989,3.3962,3.3959,3.3941,3.3973,3.3966,3.3985,3.3984,3.4061,3.4068,3.3976,3.3977,3.3978,0,3.4463,3.4462,3.4404,3.4392,3.4368,3.4349,3.4331,3.4275,3.4258,3.4211,3.4209,3.4179,3.4152,3.4113,3.4064,3.4032,3.4011,3.4041,3.4006,3.402,3.4009,3.4009,3.4008,3.4048,3.4049,3.405,3.4051,0,3.4542,3.4518,3.4496,3.4464,3.4445,3.4417,3.4386,3.4379,3.4315,3.4299,3.4273,3.4252,3.421,3.418,3.4141,3.4111,3.407,3.4063,3.4065,3.4079,3.4097,3.4085,3.3992,3.4061,3.406,3.4059,3.4059,3.4058,3.4607,3.4603,3.4561,3.4537,3.4508,3.448,3.447,3.4432,3.4409,3.4371,3.4339,3.4315,3.4272,3.4215,3.4188,3.4167,3.4147,3.415,3.415,3.4152,3.4157,3.4102,3.416,3.4159,3.4159,3.4159,3.4158,0,3.4681,3.4651,3.463,3.4589,3.457,3.4535,3.4499,3.4484,3.4464,3.4429,3.4403,3.4371,3.4342,3.4292,3.4257,3.425,3.423,3.4243,3.4242,3.4235,3.4178,3.4179,3.4259,3.4259,3.4259,3.4259,3.4259,3.4259,3.4718,3.4708,3.4679,3.4654,3.4623,3.46,3.4582,3.4556,3.4527,3.4495,3.447,3.4438,3.4396,3.4358,3.4329,3.4314,3.4303,3.4322,3.4301,3.4249,3.4239,3.423,3.423,3.432,3.432,3.4359,3.436,3.436]}]]